Tracking 30923 objects as of 1-Jul-2025
HD Live streaming from Space Station
objects crossing your sky now

NOAA 16 DEB

Track NOAA 16 DEB now!
10-day predictions


NORAD ID: 41067
Int'l Code: 2000-055AA
Perigee: 839.2 km
Apogee: 845.0 km
Inclination: 98.6 °
Period: 101.6 minutes
Semi major axis: 7213 km
RCS: Unknown
Launch date: September 21, 2000
Source: United States (US)
Launch site: AIR FORCE WESTERN TEST RANGE (AFWTR)

Note: This is SATELLITE DEBRIS
Your satellite tracking list
Your tracking list is empty




NASA's NSSDC Master Catalog

Two Line Element Set (TLE):
1 41067U 00055AA  25181.65117882  .00000552  00000-0  29486-3 0  9997
2 41067  98.5578 223.6755 0004057 185.4810 174.6322 14.17162086495004
Source of the keplerian elements: AFSPC